California, MD

1:33 AM EDT on September 28, 2016 (GMT -0400)
Leonardtown

Weather History for K2W6 - April, 2013

Change the Weather History Date:

Saturday, April 6, 2013

  Actual Average (KNHK) Record (KNHK)
Temperature  
Mean Temperature 46 °F -  
Max Temperature 51 °F 57 °F 81 °F (2005)
Min Temperature 41 °F 41 °F 27 °F (2016)
Degree Days  
Heating Degree Days 19    
Moisture  
Dew Point 22 °F    
Average Humidity 40    
Maximum Humidity 70    
Minimum Humidity 26    
Precipitation  
Precipitation 0.00 in - - ()
Sea Level Pressure  
Sea Level Pressure 30.26 in    
Wind  
Wind Speed 5 mph (NE)    
Max Wind Speed 9 mph    
Max Gust Speed 18 mph    
Visibility 10 miles    
Events      
Averages and records for this station are not official NWS values.
T = Trace of Precipitation, MM = Missing Value Source: NWS Daily Summary

Daily Weather History Graph

Daily Weather History Graph

Search for Another Location

Airport or City:

Trip Planner

Search our weather history database for the weather conditions in past years. The results will help you decide how hot, cold, wet, or windy it might be!

Date:

Astronomy

Apr. 06, 2013 Rise Set
Actual Time 6:43 AM EDT 7:34 PM EDT
Civil Twilight 6:16 AM EDT 8:01 PM EDT
Nautical Twilight 5:44 AM EDT 8:33 PM EDT
Astronomical Twilight 5:11 AM EDT 9:06 PM EDT
Moon 4:22 AM EDT (4/6) 4:03 PM EDT (4/6)
Length of Visible Light 13h 44m
Length of Day
12h 51m
Waning Crescent, 15% of the Moon is Illuminated
Apr 6
Waning Crescent
Apr 10
New
Apr 18
First Quarter
Apr 25
Full
May 2
Last Quarter

Hourly Weather History & Observations

Time (EDT) Temp. Windchill Dew Point Humidity Pressure Visibility Wind Dir Wind Speed Gust Speed Precip Events Conditions
12:10 AM 51.8 °F - 23.0 °F 33% 30.03 in 10.0 mi NNW 6.9 mph - N/A   Clear
12:30 AM 51.8 °F - 21.2 °F 30% 30.04 in 10.0 mi NNW 5.8 mph 18.4 mph N/A   Clear
12:50 AM 51.8 °F - 21.2 °F 30% 30.05 in 10.0 mi NNW 5.8 mph - N/A   Clear
1:11 AM 50.0 °F - 21.2 °F 32% 30.06 in 10.0 mi NNW 4.6 mph - N/A   Clear
1:31 AM 50.0 °F - 21.2 °F 32% 30.06 in 10.0 mi NNW 3.5 mph - N/A   Clear
1:51 AM 50.0 °F - 21.2 °F 32% 30.08 in 10.0 mi Calm Calm - N/A   Clear
2:11 AM 48.2 °F - 19.4 °F 32% 30.08 in 10.0 mi NNW 4.6 mph - N/A   Clear
2:31 AM 46.4 °F 42.9 °F 17.6 °F 32% 30.08 in 10.0 mi North 6.9 mph - N/A   Clear
2:51 AM 46.4 °F 44.3 °F 17.6 °F 32% 30.09 in 10.0 mi North 4.6 mph - N/A   Clear
3:11 AM 46.4 °F 42.4 °F 19.4 °F 34% 30.10 in 10.0 mi NNW 8.1 mph - N/A   Clear
3:31 AM 46.4 °F 44.3 °F 17.6 °F 32% 30.11 in 10.0 mi NNW 4.6 mph - N/A   Clear
3:51 AM 44.6 °F 42.2 °F 17.6 °F 34% 30.12 in 10.0 mi NNW 4.6 mph - N/A   Clear
4:11 AM 44.6 °F 41.4 °F 17.6 °F 34% 30.13 in 10.0 mi NW 5.8 mph - N/A   Clear
4:31 AM 44.6 °F 43.1 °F 17.6 °F 34% 30.14 in 10.0 mi NNW 3.5 mph - N/A   Clear
4:51 AM 42.8 °F 41.1 °F 19.4 °F 39% 30.16 in 10.0 mi NW 3.5 mph - N/A   Clear
5:11 AM 42.8 °F - 19.4 °F 39% 30.17 in 10.0 mi Calm Calm - N/A   Clear
5:31 AM 42.8 °F 40.1 °F 19.4 °F 39% 30.18 in 10.0 mi North 4.6 mph - N/A   Clear
5:51 AM 41.0 °F - 19.4 °F 42% 30.19 in 10.0 mi Calm Calm - N/A   Clear
6:51 AM 41.0 °F 39.0 °F 19.4 °F 42% 30.23 in 10.0 mi NNW 3.5 mph - N/A   Clear
7:11 AM 41.0 °F - 19.4 °F 42% 30.25 in 10.0 mi Calm Calm - N/A   Clear
7:31 AM 41.0 °F 38.0 °F 19.4 °F 42% 30.26 in 10.0 mi NNW 4.6 mph - N/A   Clear
7:51 AM 41.0 °F 38.0 °F 21.2 °F 45% 30.27 in 10.0 mi NNW 4.6 mph - N/A   Clear
8:11 AM 41.0 °F 38.0 °F 21.2 °F 45% 30.28 in 10.0 mi North 4.6 mph - N/A   Clear
8:31 AM 42.8 °F 39.3 °F 21.2 °F 42% 30.29 in 10.0 mi North 5.8 mph - N/A   Clear
8:51 AM 42.8 °F 40.1 °F 21.2 °F 42% 30.29 in 10.0 mi NNE 4.6 mph - N/A   Clear
9:11 AM 42.8 °F - 24.8 °F 49% 30.30 in 10.0 mi Calm Calm - N/A   Clear
9:32 AM 42.8 °F 40.1 °F 24.8 °F 49% 30.31 in 10.0 mi NNE 4.6 mph - N/A   Clear
9:52 AM 44.6 °F 40.7 °F 23.0 °F 43% 30.32 in 10.0 mi NE 6.9 mph - N/A   Clear
10:12 AM 44.6 °F 41.4 °F 23.0 °F 43% 30.33 in 10.0 mi NNE 5.8 mph - N/A   Clear
10:52 AM 44.6 °F 41.4 °F 23.0 °F 43% 30.35 in 10.0 mi NNE 5.8 mph - N/A   Clear
11:12 AM 44.6 °F 40.7 °F 23.0 °F 43% 30.35 in 10.0 mi NNW 6.9 mph - N/A   Clear
11:32 AM 44.6 °F 40.7 °F 23.0 °F 43% 30.36 in 10.0 mi NE 6.9 mph - N/A   Clear
11:52 AM 46.4 °F 42.9 °F 24.8 °F 43% 30.36 in 10.0 mi NE 6.9 mph - N/A   Clear
12:12 PM 44.6 °F 40.2 °F 23.0 °F 43% 30.36 in 10.0 mi NNE 8.1 mph - N/A   Clear
12:32 PM 44.6 °F 41.4 °F 21.2 °F 39% 30.35 in 10.0 mi NNE 5.8 mph - N/A   Clear
12:52 PM 46.4 °F 43.5 °F 19.4 °F 34% 30.35 in 10.0 mi NW 5.8 mph - N/A   Clear
1:12 PM 46.4 °F 45.2 °F 19.4 °F 34% 30.34 in 10.0 mi NE 3.5 mph - N/A   Clear
1:32 PM 46.4 °F 42.9 °F 19.4 °F 34% 30.34 in 10.0 mi NE 6.9 mph - N/A   Clear
1:52 PM 46.4 °F 44.3 °F 17.6 °F 32% 30.34 in 10.0 mi NNE 4.6 mph - N/A   Clear
2:12 PM 50.0 °F - 19.4 °F 30% 30.33 in 10.0 mi NE 6.9 mph - N/A   Clear
2:32 PM 48.2 °F - 17.6 °F 30% 30.32 in 10.0 mi NW 3.5 mph - N/A   Clear
2:52 PM 50.0 °F - 19.4 °F 30% 30.32 in 10.0 mi SSE 3.5 mph - N/A   Clear
3:12 PM 50.0 °F - 19.4 °F 30% 30.31 in 10.0 mi East 5.8 mph - N/A   Clear
3:32 PM 50.0 °F - 17.6 °F 28% 30.31 in 10.0 mi Calm Calm - N/A   Clear
3:52 PM 50.0 °F - 15.8 °F 26% 30.30 in 10.0 mi NE 3.5 mph - N/A   Clear
4:12 PM 50.0 °F - 19.4 °F 30% 30.29 in 10.0 mi ESE 6.9 mph - N/A   Clear
4:32 PM 51.8 °F - 21.2 °F 30% 30.29 in 10.0 mi ENE 5.8 mph - N/A   Clear
4:52 PM 51.8 °F - 19.4 °F 28% 30.29 in 10.0 mi East 5.8 mph - N/A   Clear
5:12 PM 51.8 °F - 17.6 °F 26% 30.29 in 10.0 mi ENE 4.6 mph - N/A   Clear
5:32 PM 51.8 °F - 19.4 °F 28% 30.29 in 10.0 mi Calm Calm - N/A   Clear
5:52 PM 51.8 °F - 19.4 °F 28% 30.30 in 10.0 mi East 4.6 mph - N/A   Clear
6:13 PM 51.8 °F - 17.6 °F 26% 30.30 in 10.0 mi ESE 6.9 mph - N/A   Clear
6:33 PM 51.8 °F - 19.4 °F 28% 30.30 in 10.0 mi ESE 4.6 mph - N/A   Clear
6:53 PM 50.0 °F - 21.2 °F 32% 30.30 in 10.0 mi South 4.6 mph - N/A   Clear
7:13 PM 50.0 °F - 23.0 °F 35% 30.30 in 10.0 mi SSE 6.9 mph - N/A   Clear
7:33 PM 46.4 °F 44.3 °F 24.8 °F 43% 30.30 in 10.0 mi SSE 4.6 mph - N/A   Clear
7:53 PM 46.4 °F 44.3 °F 24.8 °F 43% 30.31 in 10.0 mi SSE 4.6 mph - N/A   Clear
8:13 PM 44.6 °F 43.1 °F 26.6 °F 49% 30.31 in 10.0 mi SE 3.5 mph - N/A   Clear
8:33 PM 44.6 °F 42.2 °F 28.4 °F 53% 30.32 in 10.0 mi SE 4.6 mph - N/A   Clear
8:53 PM 44.6 °F 41.4 °F 30.2 °F 57% 30.32 in 10.0 mi SE 5.8 mph - N/A   Clear
9:13 PM 44.6 °F 40.7 °F 30.2 °F 57% 30.32 in 10.0 mi SE 6.9 mph - N/A   Clear
9:33 PM 42.8 °F 37.5 °F 32.0 °F 66% 30.33 in 10.0 mi SE 9.2 mph - N/A   Clear
9:53 PM 42.8 °F 38.0 °F 30.2 °F 61% 30.33 in 10.0 mi SE 8.1 mph - N/A   Clear
10:13 PM 42.8 °F 38.0 °F 30.2 °F 61% 30.33 in 10.0 mi SE 8.1 mph - N/A   Clear
10:33 PM 42.8 °F 40.1 °F 28.4 °F 57% 30.33 in 10.0 mi SSE 4.6 mph - N/A   Clear
10:53 PM 41.0 °F 36.4 °F 28.4 °F 61% 30.33 in 10.0 mi SE 6.9 mph - N/A   Clear
11:13 PM 41.0 °F 38.0 °F 28.4 °F 61% 30.33 in 10.0 mi SE 4.6 mph - N/A   Clear
11:33 PM 41.0 °F 37.1 °F 30.2 °F 65% 30.33 in 10.0 mi SE 5.8 mph - N/A   Clear
11:53 PM 41.0 °F 39.0 °F 32.0 °F 70% 30.33 in 10.0 mi SSE 3.5 mph - N/A   Clear